map of DSA home
DSA - Airport
Location
City:  Doncaster/Sheffield, Yorkshire, England, United Kingdom
Name:Robin Hood Airport
Old (Alt.):RAF Finningley
ICAO:EGCN
IATA:DSA

Details
Type:Airport (Aerodrome, Airfield)
Use:Public/Civil, International (customs port of entry)
Latitude:5328'29"N (53.474722)
Longitude:100'16"W (-1.004443)
Datum:WGS 1984
Elevation:55 ft (17 m)
Variation:0.85W (WMM2015 magnetic declination)
0.16 annual change
Runways:1
Longest:9491 × 197 ft (2893 × 60 m), paved

Time
Time Zone:UTC+0
Local Time:

Weather
METAR:EGCN 180720Z 31003KT 0500 R20/0200 FG FEW005 01/01 Q1032
TAF:EGCN 180458Z 1806/1906 05005KT 0300 FG BKN001
TEMPO 1806/1808 1500 BR BKN010
BECMG 1808/1810 4000 BR SCT010
BECMG 1811/1814 8000 NSW

Related Locations
Nearby:
Farthest:NZBA: 11786 mi / 18968 km
Balclutha, OTA, NZ

Find:

   beyond  
but within

Other Information
Maps:
NOTAMs:
Links:
Sources:

  
  • flag of United Kingdom
  • flag of England
  

Sectional Chart

Flight Planning
at skyvector.com

Satellite Image

Google Maps Satellite view

 

Copyright © 2004-2018 Karl L. Swartz. All rights reserved.
The Great Circle Mapper name and logo are trademarks of the Great Circle Mapper.
All other trademarks mentioned herein belong to their respective owners.
Please see credits for attibutions and further copyright information.

  Follow gcmap on Facebook Follow gcmap on Twitter Follow gcmap on Google+ GCmap on LinkedIn

hCard Microformat

Geo Microformat